This is the latest recevied weather packets stored in our database for station/object CT4TX-11. If no packets are shown the sender has not sent any weather packets the latest 10 day(s).
| Time | Temp. | Humidity | Pressure | Rain* | Wind** | Luminosity | Snow |
|---|---|---|---|---|---|---|---|
| 1787978158 | 27.78° C | 51% | 1008.1 hPa | - | - | - | - |
| 1787977257 | 27.78° C | 52% | 1008.1 hPa | - | - | - | - |
| 1787976356 | 27.78° C | 53% | 1008.2 hPa | - | - | - | - |
| 1787975462 | 27.78° C | 53% | 1008.3 hPa | - | - | - | - |
| 1787974562 | 27.78° C | 54% | 1008.4 hPa | - | - | - | - |
| 1787973662 | 27.78° C | 54% | 1008.4 hPa | - | - | - | - |
| 1787972762 | 27.78° C | 55% | 1008.3 hPa | - | - | - | - |
| 1787971862 | 27.78° C | 55% | 1008.3 hPa | - | - | - | - |
| 1787970961 | 27.78° C | 56% | 1008.4 hPa | - | - | - | - |
| 1787970061 | 27.78° C | 56% | 1008.3 hPa | - | - | - | - |
| 1787969161 | 27.78° C | 56% | 1008.3 hPa | - | - | - | - |
| 1787968261 | 27.78° C | 57% | 1008.4 hPa | - | - | - | - |
| 1787967360 | 27.78° C | 58% | 1008.5 hPa | - | - | - | - |
| 1787966460 | 27.78° C | 57% | 1008.7 hPa | - | - | - | - |
| 1787965560 | 27.78° C | 58% | 1008.7 hPa | - | - | - | - |
| 1787964660 | 27.78° C | 58% | 1008.6 hPa | - | - | - | - |
| 1787963760 | 27.78° C | 59% | 1008.8 hPa | - | - | - | - |
| 1787962859 | 27.78° C | 58% | 1008.9 hPa | - | - | - | - |
| 1787961959 | 27.78° C | 58% | 1008.8 hPa | - | - | - | - |
| 1787961063 | 28.33° C | 56% | 1009 hPa | - | - | - | - |
| 1787960158 | 28.33° C | 56% | 1009 hPa | - | - | - | - |
| 1787959258 | 28.33° C | 53% | 1009.3 hPa | - | - | - | - |
| 1787958358 | 28.89° C | 45% | 1009.4 hPa | - | - | - | - |
| 1787957458 | 28.89° C | 45% | 1009.5 hPa | - | - | - | - |
| 1787956557 | 29.44° C | 44% | 1009.7 hPa | - | - | - | - |
* Rain since midnight (hover to see other rain measurements)
** Current wind speed in m/s (hover to see current wind gust speed)